User: anonymous   Login
Location: El Escondido
(32.5111°N, 116.6697°W)
Time: 19:58:41
(UTC+00:00)
Language:

Cosmos 2315 Rocket - Orbit

View from above orbital plane
View from above orbital plane
View from above satellite
View from above satellite

Ground track
Ground track

The orbit data is extracted from the following two-line orbital elements,

1 23604U 95032B   24284.57927170  .00000170  00000-0  16361-3 0  9990
2 23604  82.9047 328.4275 0024053   2.4396 357.6873 13.74456668467855
Epoch (UTC): 10 October 2024 13:54:09
Eccentricity: 0.0024053
inclination: 82.9047°
perigee height: 966 km
apogee height: 1001 km
right ascension of ascending node: 328.4275°
argument of perigee: 2.4396°
revolutions per day: 13.74456668
mean anomaly at epoch: 357.6873°
orbit number at epoch: 46785

The dashed part of the orbit path shows where the satellite is in the earth's shadow,  

DLR